Погода в Певеке

Погода в Певеке : погода сейчас, прогноз погоды и архив. Всё, что Вы хотите узнать о погоде в Певеке!

Хотите узнать прогноз погоды в Певеке? Тогда Вам сюда: Погода в Певеке

Поиск расширенной информации на нашем сайте:

Другие новости

Новости СМИ2

Главная страница сайта

Новости сайта

03.07.2017

Напоминаем, что на нашем специализированном сайте Метеоцентр.Азия вы можете получить высокодетализированные автоматические прогнозы погоды по пунктам России, СНГ и мира в авиационном формате (включающие направление и скорость ветра, видимость, явления погоды, количество и форму облачности, нижнюю и верхнюю границу облачности).


Погода в Певеке - сегодня

Время (UTC), дата Ветер
(°,м/с) 
Видим.   Явления Облачность Т
(°С)
Тd
(°С)
f(%) Тe
(°С)
Pmin
(гПа)
dP
(гПа)
Po
(мм)
O2
(г/м3)
Тmin Tmax R s Состояние
почвы
12 09.12.17 190 (Ю) 4{06}  10 км  слаб. снег  10/0 средняя 
[As op]
-13.5 -15.8 83 -18  1028.1  1.6  771  328           
15 09.12.17 210 (ЮЗ) 3{06}  4000 м  слаб. снег  10/0 средняя 
[As op]
-13.5 -15.6 84 -17  1028.5  0.4  771  328           
18 09.12.17 210 (ЮЗ) 2{03}  10 км  слаб. снег  10/0 средняя 
[As op]
-13.4 -15.6 83 -16  1028.8  0.3  771  328           
21 09.12.17 220 (ЮЗ) 2{03}  10 км  слаб. снег  10/0 средняя 
[As op]
-13.4 -15.4 85 -16  1029.5  0.7  772  328  -13.7    0.2  28  неравномерный
сухой снег
100% 
00 10.12.17 тихо () {03}  20000 м  {снег}  10/0 средняя 
[Ac und]
-14.4 -16.3 85 -14  1030.1  0.6  772  330  -14.4         
03 10.12.17 тихо () {01}  20000 м  снежные кристаллы  10/0 средняя 
[Ac As]
-14.2 -16.1 85 -14  1030  -0.1  772  330           
06 10.12.17 020 (С) 1{02}  20000 м  снежные кристаллы  10/0 средняя 
[Ac As]
-13.8 -16 83 -14  1030.1  0.1  772  329           
09 10.12.17 350 (С) 1{02}  20000 м  снежные кристаллы  10/0 средняя 
[Ac As]
-13.6 -15.2 88 -14  1030.8  0.7  773  329    -13.4  0.0     
12 10.12.17 340 (С) 1{02}  20000 м  снежные кристаллы  10/0 средняя 
[Ac As]
-13.7 -15.3 88 -14  1031.5  0.7  773  329           
15 10.12.17 220 (ЮЗ) 3{03}  10 км  слаб. снег  10/0 средняя 
[As op]
-15.1 -17 85 -19  1031.5  773  331           
18 10.12.17 210 (ЮЗ) 2{03}  10 км  слаб. снег  10/0 средняя 
[As op]
-14.3 -16 87 -16  1032.4  0.9  774  330           
21 10.12.17 230 (ЮЗ) 2{03}  4000 м  слаб. снег  10/3 300 м средняя 
[Frnb|As op]
-14.5 -16.5 85 -17  1033.1  0.7  774  331  -15.1    0.2  28  очень
неравномерный
сухой снег
(сугробы, заносы) 
00 11.12.17 220 (ЮЗ) 2{05}  10 км  слаб. снег  10/0 средняя 
[As op]
-14.4 -16.5 84 -17  1033.7  0.6  775  331           
03 11.12.17 330 (СЗ) 2{04}  4000 м  слаб. снег  10/0 средняя 
[As op]
-14.9 -16.9 85 -17  1033.4  -0.3  775  332           
06 11.12.17 350 (С) 4{06}  10 км  слаб. снег  10/3 300 м средняя 
[Frnb|As op]
-16 -18.9 78 -21  1034.1  0.7  775  333           
09 11.12.17 340 (С) 3{06}  4000 м  слаб. снег  10/1 300 м средняя 
[Frnb|As op]
-17.5 -19.6 84 -21  1035.1  776  336    -14  0.4     
12 11.12.17 310 (СЗ) 3{08}  10 км  слаб. снег  10/4 300 м средняя 
[Frnb|As op]
-20.1 -22.6 80 -24  1035.6  0.4  776  339           
15 11.12.17 300 (СЗ) 7{10}  4000 м  слаб. снег  10/0 средняя 
[As op]
-20.4 -23.5 76 -28  1034.8  -0.8  776  339           
18 11.12.17 290 (З) 5{09}  4000 м  слаб. снег  10/0 средняя 
[As op]
-22.3 -25.1 78 -29  1035.4  0.6  776  342           
21 11.12.17 300 (СЗ) 7{09}  4000 м  слаб. снег  10/0 средняя 
[As op]
-20.9 -24.1 75 -29  1035.3  -0.1  776  340  -22.7    0.4  28  очень
неравномерный
сухой снег
(сугробы, заносы) 
00 12.12.17 300 (СЗ) 7{11}  4000 м  слаб. снег  10/0 средняя 
[As op]
-21 -23.8 78 -29  1035.8  0.5  776  341           
03 12.12.17 300 (СЗ) 9-10{11}  4000 м  слаб. снег  10/0 средняя 
[As op]
-22.1 -25 77 -32  1035.8  776  342           
06 12.12.17 260 (З) 4{11}  4000 м  слаб. снег  10/0 средняя 
[As op]
-21.7 -24.8 76 -27  1035.5  -0.3  776  341           
09 12.12.17 200 (Ю) 3{07}  4000 м  слаб. снег  10/0 средняя 
[As op]
-20.8 -23.9 76 -25  1034.7  -0.8  775  340    -20.3  0.4     
12 12.12.17 220 (ЮЗ) 2{05}  10 км  слаб. снег  10/0 средняя 
[As op]
-19.1 -22.2 76 -22  1033.7  -1  775  337           
Время (UTC), дата Ветер
(°,м/с) 
Видим.   Явления Облачность Т
(°С)
Тd
(°С)
f(%) Тe
(°С)
Pmin
(гПа)
dP
(гПа)
Po
(мм)
O2
(г/м3)
Тmin Tmax R s Состояние
почвы

Для получения пояснительной информации подведите курсор к названию столбца.

ПОГОДА в Певеке - архив

Всё, что Вы хотите узнать о погоде в Певеке - удобно и подробно!

Выберите нужную дату (начиная с 1 января 2015* года) и нажмите кнопку "Найти".
Будут отображены архивные сводки погоды по пункту Певек, начиная с указанной даты.


Отображать данные в формате CSV (для использования в таблицах Excel)


Внимание! Наш архив погоды предназначен исключительно для личного некоммерческого использования в познавательных целях. Если Вам необходимы официальные справки о состоянии погоды (для производственных, юридических, коммерческих и т.п. целей), обращайтесь в органы Росгидромета.

*Примечание: данная дата относится к архиву по метеостанциям СССР (Россия, СНГ, Балтия).
Архив по метеостанциям Зарубежной Европы и Азии (кроме Китая) хранится 10 дней, по другим регионам земного шара (Китай, Африка, Америка, Австралия, Океания) - 1 день.

Певек - район местоположения метеостанции


Название, широта, долгота, высота метеостанции:
Певек 69.7°ш. 170.3°д. 6 м над ур. моря [Российская Федерация]

Дополнительная информация

В oтличие oт бoльшинства пoгoдных сайтoв мы публикуем пoдрoбную метеoинфoрмацию в детальнoм прoфессиoнальнoм фoрмате.

Характеристики температуры и влажнoсти вoздуха измеряются на высoте 2 м в тени вдали oт зданий и деревьев.
Скoрoсть ветра измеряется на высoте 10 м (на урoвне рoста челoвека скoрoсть ветра ниже в 1.5-2 раза). Если метеoстанция нахoдится в гoрoде или в лесу, тo скoрoсть ветра занижена на 2-4 м/с пo сравнению с oткрытым местoм. Скoрoсть ветра над акватoриями крупных рек и oзёр, а также на вершинах хoлмoв на 2-5 м/с выше, чем в oбычных услoвиях.
Атмoсфернoе давление в разных тoчках местнoсти мoжет значительнo oтличаться oт давления на метеoстанции, в зависимoсти oт услoвий рельефа (при пoдъёме на 10 м давление пoнижается примернo на 1 мм рт.ст.).